Miscellaneous Local Product
Issued by NWS North Platte, NE

Home | Current Version | Previous Version | Graphics & Text | Print | Product List | Glossary On
Versions: 1 2 3 4 5 6 7 8 9 10 11 12 13 14 15 16 17 18 19 20 21 22 23 24 25 26 27 28 29 30 31 32 33 34 35 36 37 38 39 40 41 42 43 44 45 46 47 48 49 50
580
AXUS43 KLBF 261210
MISLBF


WESTERN AND NORTH CENTRAL NEBRASKA HOURLY WEATHER ROUNDUP
NATIONAL WEATHER SERVICE NORTH PLATTE NE
700 AM CDT TUE JUL 26 2016

NOTE: "FAIR" INDICATES FEW OR NO CLOUDS BELOW 12,000 FEET WITH NO
SIGNIFICANT WEATHER AND/OR OBSTRUCTIONS TO VISIBILITY.

NOTE: STATIONS NOT REPORTING VARIABLES SUCH AS SKY/WEATHER OR
PRESSURE ARE PROVIDED BY RAWS AND APRS NETWORKS AND ARE NOT UNDER
NATIONAL WEATHER SERVICE QUALITY CONTROL.

...OBSERVATIONS IN AND NEAR THE EASTERN PANHANDLE OF NEBRASKA...

CITY           SKY/WX    TMP DP  RH WIND       PRES   REMARKS
PINE RIDGE     CLEAR     68  64  87 S18G25    30.00F
CHADRON        CLEAR     70  61  73 CALM      29.98F
ALLIANCE       CLEAR     63  62  97 S13       30.07R
SIDNEY         CLEAR     64  63  96 S12       30.12S FOG
CRESCENT LAKE    N/A     65  64  95 S9          N/A
$$

...OBSERVATIONS IN NORTHERN NEBRASKA AND FAR SOUTHERN SOUTH DAKOTA...

CITY           SKY/WX    TMP DP  RH WIND       PRES   REMARKS
WINNER         FAIR      73  60  63 S17       30.01S
VALENTINE      CLEAR     69  63  81 S14       30.05S
THEDFORD       CLEAR     67  65  93 S8        30.10S
AINSWORTH      CLEAR     65  62  87 S10       30.08S
O`NEILL        CLEAR     65  62  88 S7        30.08R
ORD            CLEAR     62  59  90 E3        30.08S
BROKEN BOW     CLEAR     62  61  96 S3        30.11S
VALENTINE NWR    N/A     64  62  94 S9          N/A
BUTTE            N/A     68  62  80 S5          N/A
HALSEY           N/A     67  63  88 S8          N/A
EWING            N/A     65  63  93 CALM        N/A
$$

...OBSERVATIONS IN SOUTHWEST NEBRASKA AND FAR NORTHEAST COLORADO...

CITY           SKY/WX    TMP DP  RH WIND       PRES   REMARKS
WRAY           FAIR      64  64 100 SE8       30.13
HOLYOKE          N/A     66  63  88 W8        30.12S
IMPERIAL       PTCLDY    66  64  93 S9        30.11S
OGALLALA       CLEAR     67  64  90 CALM      30.11R
NORTH PLATTE   CLEAR     65  64  97 SE5       30.11S
MCCOOK         CLEAR     64  62  93 S5        30.11R
LEXINGTON      CLEAR     62  60  94 CALM      30.11S FOG
STAPLETON        N/A     64  63  96 CALM        N/A
GOTHENBURG       N/A     65  61  88 CALM        N/A
CALLAWAY         N/A     64  63  98 S6          N/A
$$

...OBSERVATIONS IN CENTRAL LINCOLN COUNTY AREA...

CITY           SKY/WX    TMP DP  RH WIND       PRES   REMARKS
N.P. AIRPORT   CLEAR     65  64  97 SE5       30.11S
N.P. DOWNTOWN    N/A     68  65  89 CALM        N/A
N.P. HILLCREST   N/A     66  64  93 SE7         N/A
$$

...SOME OBSERVATIONS FROM AROUND THE REGION...

CITY           SKY/WX    TMP DP  RH WIND       PRES   REMARKS
DENVER         PTCLDY    64  50  60 SW8       30.14S
LARAMIE        CLOUDY    52  36  54 CALM      30.29R
CHEYENNE       CLOUDY    56  46  69 W7        30.18S
SCOTTSBLUFF    CLEAR     63  61  93 SE9       30.05S
RAPID CITY     CLOUDY    65  61  87 S8        29.98F
BISMARCK       CLEAR     69  67  93 NE8       29.96R
PIERRE         CLEAR     72  63  73 S9        29.95S
SIOUX FALLS    PTCLDY    70  63  78 S7        30.06S
OMAHA          CLEAR     67  64  90 CALM      30.08F
GRAND ISLAND   CLEAR     62  59  90 CALM      30.10S
KANSAS CITY    PTCLDY    71  67  87 NE6       30.07S
WICHITA        MOCLDY    74  71  91 N8        30.04S
OKLAHOMA CITY  MOCLDY    74  72  93 N5        30.01R
DALLAS         MOCLDY    79  72  79 CALM      29.96R
AMARILLO       CLEAR     66  60  81 W7        30.13R
DODGE CITY     FOG       68  68 100 SE5       30.10R VSB<1/4
HAYS           CLOUDY    70  61  73 SE6       30.10R
GOODLAND       CLOUDY    67  65  93 S14       30.13F
$$




USA.gov is the U.S. government's official web portal to all federal, state and local government web resources and services.